Location: Middlebury
(44.0133°N, 73.1813°W)
Time: 03:14:03
(UTC-04:00)

Envisat - Pass Details

Date: 29 January 2022
Orbit: 764 x 765 km, 98.2° (Epoch: 21 May)

Event Time Altitude Azimuth Distance (km) Brightness Sun altitude
Rises 05:45:48 0° 3° (N) 3,241 6.2 -15.8°
Reaches altitude 10° 05:48:20 10° 353° (N) 2,310 5.3 -15.4°
Maximum altitude 05:52:43 30° 294° (WNW) 1,349 3.7 -14.6°
Drops below altitude 10° 05:57:05 10° 234° (SW) 2,298 5.1 -13.8°
Sets 05:59:36 0° 224° (SW) 3,220 5.9 -13.4°
